This is the latest recevied weather packets stored in our database for station/object EA3KZ-1. If no packets are shown the sender has not sent any weather packets the latest 10 day(s).
| Time | Temp. | Humidity | Pressure | Rain* | Wind** | Luminosity | Snow |
|---|---|---|---|---|---|---|---|
| 1787688334 | 25.56° C | 57% | 1010.6 hPa | 0 mm | - | - | - |
| 1787687732 | 25.56° C | 56% | 1010.4 hPa | 0 mm | - | - | - |
| 1787687129 | 25.56° C | 57% | 1010.3 hPa | 0 mm | - | - | - |
| 1787686527 | 26.11° C | 56% | 1010.1 hPa | 0 mm | - | - | - |
| 1787685924 | 26.11° C | 56% | 1009.9 hPa | 0 mm | - | - | - |
| 1787685321 | 26.11° C | 56% | 1009.9 hPa | 0 mm | - | - | - |
| 1787684719 | 26.67° C | 56% | 1009.8 hPa | 0 mm | - | - | - |
| 1787684116 | 26.67° C | 55% | 1009.5 hPa | 0 mm | - | - | - |
| 1787683574 | 27.22° C | 53% | 1009.5 hPa | 0 mm | - | - | - |
| 1787682971 | 27.22° C | 53% | 1009.4 hPa | 0 mm | - | - | - |
| 1787682369 | 27.22° C | 51% | 1009.3 hPa | 0 mm | - | - | - |
| 1787681766 | 27.78° C | 51% | 1009.3 hPa | 0 mm | - | - | - |
| 1787681163 | 28.33° C | 51% | 1009.2 hPa | 0 mm | - | - | - |
| 1787680561 | 28.33° C | 52% | 1008.9 hPa | 0 mm | - | - | - |
| 1787679958 | 28.89° C | 52% | 1008.9 hPa | 0 mm | - | - | - |
| 1787679356 | 29.44° C | 50% | 1008.9 hPa | 0 mm | - | - | - |
| 1787678753 | 29.44° C | 49% | 1008.8 hPa | 0 mm | - | - | - |
| 1787678151 | 30° C | 48% | 1008.7 hPa | 0 mm | - | - | - |
| 1787677548 | 30° C | 47% | 1008.6 hPa | 0 mm | - | - | - |
| 1787676945 | 30° C | 46% | 1008.5 hPa | 0 mm | - | - | - |
| 1787676343 | 30° C | 46% | 1008.5 hPa | 0 mm | - | - | - |
| 1787675740 | 30.56° C | 45% | 1008.4 hPa | 0 mm | - | - | - |
| 1787675138 | 31.67° C | 41% | 1008.4 hPa | 0 mm | - | - | - |
| 1787674535 | 32.22° C | 33% | 1008.3 hPa | 0 mm | - | - | - |
| 1787673932 | 32.22° C | 33% | 1008.2 hPa | 0 mm | - | - | - |
* Rain latest hour (hover to see other rain measurements)
** Current wind speed in m/s (hover to see current wind gust speed)